Time,TemperatureF,DewpointF,PressureIn,WindDirection,WindDirectionDegrees,WindSpeedMPH,WindSpeedGustMPH,Humidity,HourlyPrecipIn,Conditions,Clouds,dailyrainin,SolarRadiationWatts/m^2,SoftwareType,DateUTC
2013-02-02 00:01:00,43.0,34.0,-100.00,East,92,8.0,10.0,70,0.00,,,0.01,0.000000,,2013-02-02 08:01:00,
2013-02-02 00:11:00,43.0,34.0,-100.00,East,92,8.0,10.0,70,0.00,,,0.01,0.000000,,2013-02-02 08:11:00,
2013-02-02 01:32:00,41.0,31.0,-100.00,East,89,8.0,11.0,68,-99.99,,,0.01,0.000000,,2013-02-02 09:32:00,
2013-02-02 01:42:00,41.0,31.0,-100.00,East,89,8.0,11.0,68,-99.99,,,0.01,0.000000,,2013-02-02 09:42:00,
2013-02-02 01:52:00,41.0,31.0,-100.00,East,89,8.0,11.0,68,-99.99,,,0.01,0.000000,,2013-02-02 09:52:00,
2013-02-02 02:01:00,41.0,31.0,-100.00,East,89,8.0,11.0,68,-99.99,,,0.01,0.000000,,2013-02-02 10:01:00,
2013-02-02 02:11:00,41.0,31.0,-100.00,East,89,8.0,11.0,68,-99.99,,,0.01,0.000000,,2013-02-02 10:11:00,
2013-02-02 02:32:00,43.0,33.0,-100.00,East,91,8.0,11.0,67,0.00,,,0.01,0.000000,,2013-02-02 10:32:00,
2013-02-02 02:42:00,43.0,33.0,-100.00,East,91,8.0,11.0,67,0.00,,,0.01,0.000000,,2013-02-02 10:42:00,
2013-02-02 02:52:00,43.0,33.0,-100.00,East,91,8.0,11.0,67,0.00,,,0.01,0.000000,,2013-02-02 10:52:00,
2013-02-02 03:01:00,43.0,33.0,-100.00,East,91,8.0,11.0,67,0.00,,,0.01,0.000000,,2013-02-02 11:01:00,
2013-02-02 03:11:00,43.0,33.0,-100.00,East,91,8.0,11.0,67,0.00,,,0.01,0.000000,,2013-02-02 11:11:00,
2013-02-02 03:32:00,43.0,32.0,-100.00,East,92,8.0,11.0,65,0.00,,,0.01,0.000000,,2013-02-02 11:32:00,
2013-02-02 03:42:00,43.0,32.0,-100.00,East,92,8.0,11.0,65,0.00,,,0.01,0.000000,,2013-02-02 11:42:00,
2013-02-02 03:52:00,43.0,32.0,-100.00,East,92,8.0,11.0,65,0.00,,,0.01,0.000000,,2013-02-02 11:52:00,
2013-02-02 04:01:00,43.0,32.0,-100.00,East,92,8.0,11.0,65,0.00,,,0.01,0.000000,,2013-02-02 12:01:00,
2013-02-02 04:11:00,43.0,32.0,-100.00,East,92,8.0,11.0,65,0.00,,,0.01,0.000000,,2013-02-02 12:11:00,
2013-02-02 04:32:00,42.0,31.0,-100.00,East,92,8.0,11.0,65,0.00,,,-99.99,0.000000,,2013-02-02 12:32:00,
2013-02-02 04:42:00,42.0,31.0,-100.00,East,92,8.0,11.0,65,0.00,,,-99.99,0.000000,,2013-02-02 12:42:00,
2013-02-02 04:52:00,42.0,31.0,-100.00,East,92,8.0,11.0,65,0.00,,,-99.99,0.000000,,2013-02-02 12:52:00,
2013-02-02 05:02:00,42.0,31.0,-100.00,East,92,8.0,11.0,65,0.00,,,-99.99,0.000000,,2013-02-02 13:02:00,
2013-02-02 05:11:00,42.0,31.0,-100.00,East,92,8.0,11.0,65,0.00,,,-99.99,0.000000,,2013-02-02 13:11:00,
2013-02-02 05:33:00,43.0,32.0,-100.00,East,93,8.0,11.0,66,0.00,,,0.01,0.000000,,2013-02-02 13:33:00,
2013-02-02 05:42:00,43.0,32.0,-100.00,East,93,8.0,11.0,66,0.00,,,0.01,0.000000,,2013-02-02 13:42:00,
2013-02-02 05:52:00,43.0,32.0,-100.00,East,93,8.0,11.0,66,0.00,,,0.01,0.000000,,2013-02-02 13:52:00,
2013-02-02 06:02:00,43.0,32.0,-100.00,East,93,8.0,11.0,66,0.00,,,0.01,0.000000,,2013-02-02 14:02:00,
2013-02-02 06:11:00,43.0,32.0,-100.00,East,93,8.0,11.0,66,0.00,,,0.01,0.000000,,2013-02-02 14:11:00,
2013-02-02 06:33:00,43.0,32.0,-100.00,East,92,9.0,11.0,64,0.00,,,0.00,0.000000,,2013-02-02 14:33:00,
2013-02-02 06:42:00,43.0,32.0,-100.00,East,92,9.0,11.0,64,0.00,,,0.00,0.000000,,2013-02-02 14:42:00,
2013-02-02 06:52:00,43.0,32.0,-100.00,East,92,9.0,11.0,64,0.00,,,0.00,0.000000,,2013-02-02 14:52:00,
2013-02-02 07:02:00,43.0,32.0,-100.00,East,92,9.0,11.0,64,0.00,,,0.00,0.000000,,2013-02-02 15:02:00,
2013-02-02 07:11:00,43.0,32.0,-100.00,East,92,9.0,11.0,64,0.00,,,0.00,0.000000,,2013-02-02 15:11:00,
2013-02-02 07:33:00,43.0,31.0,-100.00,East,91,8.0,11.0,63,0.00,,,0.00,0.000000,,2013-02-02 15:33:00,
2013-02-02 07:42:00,43.0,31.0,-100.00,East,91,8.0,11.0,63,0.00,,,0.00,0.000000,,2013-02-02 15:42:00,
2013-02-02 07:52:00,43.0,31.0,-100.00,East,91,8.0,11.0,63,0.00,,,0.00,0.000000,,2013-02-02 15:52:00,
2013-02-02 08:02:00,43.0,31.0,-100.00,East,91,8.0,11.0,63,0.00,,,0.00,0.000000,,2013-02-02 16:02:00,
2013-02-02 08:11:00,43.0,31.0,-100.00,East,91,8.0,11.0,63,0.00,,,0.00,0.000000,,2013-02-02 16:11:00,
2013-02-02 08:42:00,42.0,30.0,-100.00,East,93,9.0,11.0,63,0.00,,,0.00,11.000000,,2013-02-02 16:42:00,
2013-02-02 08:52:00,42.0,30.0,-100.00,East,93,9.0,11.0,63,0.00,,,0.00,11.000000,,2013-02-02 16:52:00,
2013-02-02 09:02:00,42.0,30.0,-100.00,East,93,9.0,11.0,63,0.00,,,0.00,11.000000,,2013-02-02 17:02:00,
2013-02-02 09:11:00,42.0,30.0,-100.00,East,93,9.0,11.0,63,0.00,,,0.00,11.000000,,2013-02-02 17:11:00,
2013-02-02 09:33:00,45.0,33.0,-100.00,East,94,8.0,11.0,62,0.00,,,0.00,64.000000,,2013-02-02 17:33:00,
2013-02-02 09:42:00,45.0,33.0,-100.00,East,94,8.0,11.0,62,0.00,,,0.00,64.000000,,2013-02-02 17:42:00,
2013-02-02 09:52:00,45.0,33.0,-100.00,East,94,8.0,11.0,62,0.00,,,0.00,64.000000,,2013-02-02 17:52:00,
2013-02-02 10:02:00,45.0,33.0,-100.00,East,94,8.0,11.0,62,0.00,,,0.00,64.000000,,2013-02-02 18:02:00,
2013-02-02 10:11:00,45.0,33.0,-100.00,East,94,8.0,11.0,62,0.00,,,0.00,64.000000,,2013-02-02 18:11:00,
2013-02-02 10:32:00,48.0,34.0,-100.00,East,94,7.0,10.0,57,0.00,,,0.00,126.000000,,2013-02-02 18:32:00,
2013-02-02 10:42:00,48.0,34.0,-100.00,East,94,7.0,10.0,57,0.00,,,0.00,126.000000,,2013-02-02 18:42:00,
2013-02-02 10:52:00,48.0,34.0,-100.00,East,94,7.0,10.0,57,0.00,,,0.00,126.000000,,2013-02-02 18:52:00,
2013-02-02 11:01:00,48.0,34.0,-100.00,East,94,7.0,10.0,57,0.00,,,0.00,126.000000,,2013-02-02 19:01:00,
2013-02-02 11:11:00,48.0,34.0,-100.00,East,94,7.0,10.0,57,0.00,,,0.00,126.000000,,2013-02-02 19:11:00,
2013-02-02 11:32:00,52.0,35.0,-100.00,East,92,5.0,10.0,52,0.00,,,0.00,388.000000,,2013-02-02 19:32:00,
2013-02-02 11:42:00,52.0,35.0,-100.00,East,92,5.0,10.0,52,0.00,,,0.00,388.000000,,2013-02-02 19:42:00,
2013-02-02 11:52:00,52.0,35.0,-100.00,East,92,5.0,10.0,52,0.00,,,0.00,388.000000,,2013-02-02 19:52:00,
2013-02-02 12:01:00,52.0,35.0,-100.00,East,92,5.0,10.0,52,0.00,,,0.00,388.000000,,2013-02-02 20:01:00,
2013-02-02 12:11:00,52.0,35.0,-100.00,East,92,5.0,10.0,52,0.00,,,0.00,388.000000,,2013-02-02 20:11:00,
2013-02-02 12:32:00,56.0,37.0,-100.00,East,100,1.0,7.0,49,0.00,,,0.00,512.000000,,2013-02-02 20:32:00,
2013-02-02 12:42:00,56.0,37.0,-100.00,East,100,1.0,7.0,49,0.00,,,0.00,512.000000,,2013-02-02 20:42:00,
2013-02-02 12:52:00,56.0,37.0,-100.00,East,100,1.0,7.0,49,0.00,,,0.00,512.000000,,2013-02-02 20:52:00,
2013-02-02 13:01:00,56.0,37.0,-100.00,East,100,1.0,7.0,49,0.00,,,0.00,512.000000,,2013-02-02 21:01:00,
2013-02-02 13:11:00,56.0,37.0,-100.00,East,100,1.0,7.0,49,0.00,,,0.00,512.000000,,2013-02-02 21:11:00,
2013-02-02 13:32:00,59.0,39.0,-100.00,SSW,212,1.0,5.0,47,0.00,,,0.00,520.000000,,2013-02-02 21:32:00,
2013-02-02 13:42:00,59.0,39.0,-100.00,SSW,212,1.0,5.0,47,0.00,,,0.00,520.000000,,2013-02-02 21:42:00,
2013-02-02 13:52:00,59.0,39.0,-100.00,SSW,212,1.0,5.0,47,0.00,,,0.00,520.000000,,2013-02-02 21:52:00,
2013-02-02 14:02:00,59.0,39.0,-100.00,SSW,212,1.0,5.0,47,0.00,,,0.00,520.000000,,2013-02-02 22:02:00,
2013-02-02 14:11:00,59.0,39.0,-100.00,SSW,212,1.0,5.0,47,0.00,,,0.00,520.000000,,2013-02-02 22:11:00,
2013-02-02 14:32:00,57.0,34.0,-100.00,ESE,105,0.0,4.0,41,0.00,,,0.00,461.000000,,2013-02-02 22:32:00,
2013-02-02 14:42:00,57.0,34.0,-100.00,ESE,105,0.0,4.0,41,0.00,,,0.00,461.000000,,2013-02-02 22:42:00,
2013-02-02 14:52:00,57.0,34.0,-100.00,ESE,105,0.0,4.0,41,0.00,,,0.00,461.000000,,2013-02-02 22:52:00,
2013-02-02 15:01:00,57.0,34.0,-100.00,ESE,105,0.0,4.0,41,0.00,,,0.00,461.000000,,2013-02-02 23:01:00,
2013-02-02 15:11:00,57.0,34.0,-100.00,ESE,105,0.0,4.0,41,0.00,,,0.00,461.000000,,2013-02-02 23:11:00,
2013-02-02 15:32:00,53.0,38.0,-100.00,WSW,251,2.0,5.0,57,0.00,,,0.00,169.000000,,2013-02-02 23:32:00,
2013-02-02 15:42:00,53.0,38.0,-100.00,WSW,251,2.0,5.0,57,0.00,,,0.00,169.000000,,2013-02-02 23:42:00,
2013-02-02 15:52:00,53.0,38.0,-100.00,WSW,251,2.0,5.0,57,0.00,,,0.00,169.000000,,2013-02-02 23:52:00,
2013-02-02 16:01:00,53.0,38.0,-100.00,WSW,251,2.0,5.0,57,0.00,,,0.00,169.000000,,2013-02-03 00:01:00,
2013-02-02 16:11:00,53.0,38.0,-100.00,WSW,251,2.0,5.0,57,0.00,,,0.00,169.000000,,2013-02-03 00:11:00,
2013-02-02 16:32:00,51.0,34.0,-100.00,NNW,348,0.0,3.0,52,0.00,,,0.00,116.000000,,2013-02-03 00:32:00,
2013-02-02 16:42:00,51.0,34.0,-100.00,NNW,348,0.0,3.0,52,0.00,,,0.00,116.000000,,2013-02-03 00:42:00,
2013-02-02 16:52:00,51.0,34.0,-100.00,NNW,348,0.0,3.0,52,0.00,,,0.00,116.000000,,2013-02-03 00:52:00,
2013-02-02 17:02:00,51.0,34.0,-100.00,NNW,348,0.0,3.0,52,0.00,,,0.00,116.000000,,2013-02-03 01:02:00,
2013-02-02 17:11:00,51.0,34.0,-100.00,NNW,348,0.0,3.0,52,0.00,,,0.00,116.000000,,2013-02-03 01:11:00,
2013-02-02 17:32:00,49.0,31.0,-100.00,North,10,0.0,2.0,50,0.00,,,0.00,58.000000,,2013-02-03 01:32:00,
2013-02-02 17:42:00,49.0,31.0,-100.00,North,10,0.0,2.0,50,0.00,,,0.00,58.000000,,2013-02-03 01:42:00,
2013-02-02 17:52:00,49.0,31.0,-100.00,North,10,0.0,2.0,50,0.00,,,0.00,58.000000,,2013-02-03 01:52:00,
2013-02-02 18:01:00,49.0,31.0,-100.00,North,10,0.0,2.0,50,0.00,,,0.00,58.000000,,2013-02-03 02:01:00,
2013-02-02 18:11:00,49.0,31.0,-100.00,North,10,0.0,2.0,50,0.00,,,0.00,58.000000,,2013-02-03 02:11:00,
2013-02-02 18:42:00,47.0,34.0,-100.00,NNE,21,0.0,1.0,61,0.00,,,0.00,7.000000,,2013-02-03 02:42:00,
2013-02-02 18:52:00,47.0,34.0,-100.00,NNE,21,0.0,1.0,61,0.00,,,0.00,7.000000,,2013-02-03 02:52:00,
2013-02-02 19:02:00,47.0,34.0,-100.00,NNE,21,0.0,1.0,61,0.00,,,0.00,7.000000,,2013-02-03 03:02:00,
2013-02-02 19:11:00,47.0,34.0,-100.00,NNE,21,0.0,1.0,61,0.00,,,0.00,7.000000,,2013-02-03 03:11:00,
2013-02-02 19:32:00,46.0,36.0,-100.00,NW,324,0.0,2.0,69,0.00,,,0.00,0.000000,,2013-02-03 03:32:00,
2013-02-02 19:42:00,46.0,36.0,-100.00,NW,324,0.0,2.0,69,0.00,,,0.00,0.000000,,2013-02-03 03:42:00,
2013-02-02 19:52:00,46.0,36.0,-100.00,NW,324,0.0,2.0,69,0.00,,,0.00,0.000000,,2013-02-03 03:52:00,
2013-02-02 20:01:00,46.0,36.0,-100.00,NW,324,0.0,2.0,69,0.00,,,0.00,0.000000,,2013-02-03 04:01:00,
2013-02-02 20:11:00,46.0,36.0,-100.00,NW,324,0.0,2.0,69,0.00,,,0.00,0.000000,,2013-02-03 04:11:00,
2013-02-02 20:32:00,44.0,39.0,-100.00,East,84,2.0,3.0,83,0.00,,,0.00,0.000000,,2013-02-03 04:32:00,
2013-02-02 20:42:00,44.0,39.0,-100.00,East,84,2.0,3.0,83,0.00,,,0.00,0.000000,,2013-02-03 04:42:00,
2013-02-02 20:52:00,44.0,39.0,-100.00,East,84,2.0,3.0,83,0.00,,,0.00,0.000000,,2013-02-03 04:52:00,
2013-02-02 21:03:00,44.0,39.0,-100.00,East,84,2.0,3.0,83,0.00,,,0.00,0.000000,,2013-02-03 05:03:00,
2013-02-02 21:11:00,44.0,39.0,-100.00,East,84,2.0,3.0,83,0.00,,,0.00,0.000000,,2013-02-03 05:11:00,
2013-02-02 21:32:00,43.0,38.0,-100.00,East,90,4.0,5.0,84,0.00,,,0.00,0.000000,,2013-02-03 05:32:00,
2013-02-02 21:42:00,43.0,38.0,-100.00,East,90,4.0,5.0,84,0.00,,,0.00,0.000000,,2013-02-03 05:42:00,
2013-02-02 21:52:00,43.0,38.0,-100.00,East,90,4.0,5.0,84,0.00,,,0.00,0.000000,,2013-02-03 05:52:00,
2013-02-02 22:02:00,43.0,38.0,-100.00,East,90,4.0,5.0,84,0.00,,,0.00,0.000000,,2013-02-03 06:02:00,
2013-02-02 22:11:00,43.0,38.0,-100.00,East,90,4.0,5.0,84,0.00,,,0.00,0.000000,,2013-02-03 06:11:00,
2013-02-02 22:32:00,41.0,39.0,-100.00,East,88,5.0,6.0,91,0.00,,,0.00,0.000000,,2013-02-03 06:32:00,
2013-02-02 22:42:00,41.0,39.0,-100.00,East,88,5.0,6.0,91,0.00,,,0.00,0.000000,,2013-02-03 06:42:00,
2013-02-02 22:52:00,41.0,39.0,-100.00,East,88,5.0,6.0,91,0.00,,,0.00,0.000000,,2013-02-03 06:52:00,
2013-02-02 23:01:00,41.0,39.0,-100.00,East,88,5.0,6.0,91,0.00,,,0.00,0.000000,,2013-02-03 07:01:00,
2013-02-02 23:11:00,41.0,39.0,-100.00,East,88,5.0,6.0,91,0.00,,,0.00,0.000000,,2013-02-03 07:11:00,
2013-02-02 23:32:00,42.0,38.0,-100.00,East,86,3.0,6.0,84,0.00,,,0.00,0.000000,,2013-02-03 07:32:00,
2013-02-02 23:42:00,42.0,38.0,-100.00,East,86,3.0,6.0,84,0.00,,,0.00,0.000000,,2013-02-03 07:42:00,
2013-02-02 23:52:00,42.0,38.0,-100.00,East,86,3.0,6.0,84,0.00,,,0.00,0.000000,,2013-02-03 07:52:00,